Regional Weather Roundup
Issued by NWS

Home | Current Version | Previous Version | Text Only | Print | Product List | Glossary On
Versions: 1 2 3 4 5 6 7 8 9 10 11 12 13 14 15 16 17 18 19 20 21 22 23 24 25 26 27 28 29 30 31 32 33 34 35 36 37 38 39 40 41 42 43 44 45 46 47 48 49 50
000
ASUS43 KDMX 310607
RWRIA

WEATHER ROUNDUP FOR IOWA
NATIONAL WEATHER SERVICE DES MOINES IA
100 AM CDT FRI JUL 31 2015

NOTE: "FAIR" INDICATES FEW OR NO CLOUDS BELOW 12,000 FEET WITH NO
SIGNIFICANT WEATHER AND/OR OBSTRUCTIONS TO VISIBILITY.

* - THESE STATIONS ARE NOT NWS STATIONS...THUS NOT UNDER NWS
QUALITY CONTROL.  THEY ALSO DO NOT REPORT WEATHER SUCH
AS PRECIPITATION OR FOG.

IAZ001>003-012>014-020>022-031>034-043>046-310700-
   NORTHWEST IOWA

CITY           SKY/WX    TMP DP  RH WIND       PRES   REMARKS
CARROLL *      CLEAR     66  64  94 W3        30.13S
CHEROKEE *     CLEAR     66  66 100 S5        30.12S
DENISON *      FOG       66  64  94 CALM      30.13R VSB 1/4
LE MARS *      CLEAR     68  66  94 S5        30.12F
ORANGE CITY *  CLEAR     68  64  88 CALM      30.12F
SHELDON *      CLEAR     63  61  94 CALM      30.11S
SIOUX CITY     CLEAR     71  66  84 SE3       30.12S
6HR MIN TEMP:  70; 6HR MAX TEMP:  85;

SPENCER          N/A     65  62  90 W6        30.12R
6HR MIN TEMP:  64; 6HR MAX TEMP:  85;

STORM LAKE *   CLEAR     68  64  88 SW9       30.14S
$$

IAZ055>058-069>071-079>083-090>094-310700-
   SOUTHWEST IOWA

CITY           SKY/WX    TMP DP  RH WIND       PRES   REMARKS
ATLANTIC *     CLOUDY    68  66  94 CALM      30.15R
AUDUBON *      CLEAR     64  63  94 CALM      30.16R
CLARINDA *     CLEAR     68  68 100 CALM      30.16S
COUNCIL BLFS *   N/A     72  64  78 MISG      30.15R
CRESTON *      CLEAR     68  64  88 SW6       30.17R
HARLAN  *      PTCLDY    66  66 100 CALM      30.18R
LAMONI         CLEAR     72  63  73 SW7       30.15S
6HR MIN TEMP:  72; 6HR MAX TEMP:  84;

RED OAK *      PTCLDY    68  66  94 CALM      30.15S
SHENANDOAH *   CLEAR     68  66  94 S3        30.15S
$$

IAZ047>049-059>061-072>074-084-310700-
   CENTRAL IOWA

CITY           SKY/WX    TMP DP  RH WIND       PRES   REMARKS
AMES           CLEAR     68  65  90 W9        30.11S
6HR MIN TEMP:  67; 6HR MAX TEMP:  82;

ANKENY *       CLEAR     66  66 100 CALM      30.12R
CHARITON *     CLEAR     72  66  83 W7        30.14S
DES MOINES     CLEAR     73  65  75 W3        30.12R
6HR MIN TEMP:  73; 6HR MAX TEMP:  85;

GRINNELL*      CLEAR     68  63  83 SW7       30.12S
KNOXVILLE *    CLEAR     70  64  83 SW8       30.11S
MARSHALLTOWN   CLEAR     67  65  93 W6        30.10R
6HR MIN TEMP:  67; 6HR MAX TEMP:  82;

PELLA *        CLEAR     69  68  98 W3        30.13R
PERRY *          N/A     68  66  94 CALM      30.13S
$$

IAZ004>006-015-016-023>025-035-036-310700-
   NORTH CENTRAL IOWA

CITY           SKY/WX    TMP DP  RH WIND       PRES   REMARKS
ALGONA *       CLEAR     68  66  94 SW5       30.10R
CLARION *      CLEAR     64  64 100 SW7       30.10S
ESTHERVILLE    CLEAR     65  62  90 W7        30.10R
6HR MIN TEMP:  64; 6HR MAX TEMP:  81;

FORT DODGE *   CLEAR     66  63  88 CALM      30.11F
MASON CITY     CLEAR     70  65  84 W7        30.09F
6HR MIN TEMP:  69; 6HR MAX TEMP:  82; 6HR PCP: TRACE;

FOREST CITY *  CLEAR     64  63  94 CALM      30.09S
IOWA FALLS *     N/A     67  64  91 W6        30.11F
$$

IAZ007>011-017>019-026>030-037>042-050>054-066-310700-
   NORTHEAST IOWA

CITY           SKY/WX    TMP DP  RH WIND       PRES   REMARKS
CEDAR RAPIDS   CLEAR     67  67 100 W6        30.09R
6HR MIN TEMP:  67; 6HR MAX TEMP:  81;

CHARLES CITY * CLEAR     66  66 100 SW6       30.08S
CLINTON *      CLEAR     63  63 100 W6        30.09S
DECORAH *      CLEAR     68  61  77 SW5       30.05S
DUBUQUE        CLEAR     64  60  87 CALM      30.08S
6HR MIN TEMP:  63; 6HR MAX TEMP:  81;

MONTICELLO *   CLEAR     63  63 100 CALM      30.08R
OELWEIN *        N/A     66  64  94 SW6       30.09R
WATERLOO       CLEAR     71  66  84 W7        30.07S
6HR MIN TEMP:  68; 6HR MAX TEMP:  83;

$$

IAZ064-065-067-068-078-310700-
   EAST CENTRAL IOWA

CITY           SKY/WX    TMP DP  RH WIND       PRES   REMARKS
DAVENPORT      CLEAR     64  62  93 W5        30.08S
6HR MIN TEMP:  64; 6HR MAX TEMP:  82;

IOWA CITY      CLEAR     69  65  86 W6        30.10R
6HR MIN TEMP:  69; 6HR MAX TEMP:  84;

MT. PLEASANT * CLEAR     70  64  81 W3        30.11S
MUSCATINE *    CLEAR     72  64  78 W5        30.09R
QUAD CITIES    CLEAR     68  64  87 SW3       30.08R
6HR MIN TEMP:  68; 6HR MAX TEMP:  85;

$$

IAZ062-063-075>077-085>089-095>099-310700-
   SOUTHEAST IOWA

CITY           SKY/WX    TMP DP  RH WIND       PRES   REMARKS
BURLINGTON     CLEAR     72  66  81 W6        30.10R
6HR MIN TEMP:  71; 6HR MAX TEMP:  84;

FAIRFIELD *    CLEAR     68  64  88 W5        30.11S
FORT MADISON * CLEAR     72  66  83 W6        30.12R
KEOKUK *       CLEAR     70  66  88 SW5       30.11R
OSKALOOSA *      N/A     66  64  92 W5        30.12S
CENTERVILLE *  CLEAR     66  64  94 SW6       30.16R
OTTUMWA        CLEAR     68  65  90 W6        30.11R
6HR MIN TEMP:  67; 6HR MAX TEMP:  81;

WASHINGTON *   CLEAR     66  64  94 W5        30.12R
$$

ABBREVIATIONS USED IN REMARKS
   TC - TEMPERATURES IN CELSIUS
  WCI - WIND CHILL INDEX
   HX - HEAT INDEX
  VSB - VISIBILITY
$$



USA.gov is the U.S. government's official web portal to all federal, state and local government web resources and services.